Regional Weather Roundup
Issued by NWS

Home | Current Version | Previous Version | Graphics & Text | Print | Product List | Glossary On
Versions: 1 2 3 4 5 6 7 8 9 10 11 12 13 14 15 16 17 18 19 20 21 22 23 24 25 26 27 28
000
ASUS45 KSLC 191510
RWRUT

UTAH REGIONAL WEATHER ROUNDUP
NATIONAL WEATHER SERVICE SALT LAKE CITY UT
900 AM MDT SAT MAY 19 2018

UTZ001>011-023>025-191600-

NORTHERN UTAH

CITY           SKY/WX    TMP DP  RH WIND       PRES   REMARKS
BRIGHAM CITY   SUNNY     59  43  54 E9        30.01S
HILL AFB       SUNNY     56  42  59 NE9       30.02R
LOGAN          SUNNY     60  43  53 E6G17     30.03R
OGDEN          SUNNY     62  41  46 NE6       30.00R
SALT LAKE CITY MOSUNNY   63  43  48 NW3       29.99S
TOOELE VALLEY  SUNNY     61  48  63 CALM      30.01S
WENDOVER       SUNNY     62  45  53 SE3       30.01R
HEBER CITY       N/A     48  39  71 CALM      30.06F
WEST JORDAN    SUNNY     58  46  64 CALM      30.02S

$$

UTZ011>015-024>027-191600-

CENTRAL/NORTHEAST UTAH

CITY           SKY/WX    TMP DP  RH WIND       PRES   REMARKS
PROVO AIRPORT  MOSUNNY   57  41  55 SE3       30.03S
MOAB/CANYONLAN SUNNY     64  34  32 NW5       29.94S
DELTA          SUNNY     57  41  54 SW5       30.02R
PRICE          SUNNY     60  35  39 NE5       30.01S
RICHFIELD      SUNNY     55  37  50 CALM      30.04
ROOSEVELT      SUNNY     59  36  41 SW5       30.06R
VERNAL         SUNNY     62  40  44 NE12      30.03F

$$

UTZ013>016-019>022-027-191600-

SOUTHERN UTAH

CITY           SKY/WX    TMP DP  RH WIND       PRES   REMARKS
BRYCE CANYON   SUNNY     53  33  46 CALM      30.12S
CEDAR CITY     MOSUNNY   55  37  50 CALM      30.03R
MILFORD        MOSUNNY   62  41  46 NE5       30.01S
ST GEORGE      SUNNY     71  32  23 SE3       29.90R
HANKSVILLE     SUNNY     63  32  31 SE3       29.99S
KANAB          SUNNY     66  34  30 N8        30.02
BLANDING         N/A     64  29  27 E6        30.08R

$$

REGIONAL REPORTS     COLORADO/ARIZONA

CITY           SKY/WX    TMP DP  RH WIND       PRES   REMARKS
CRAIG, CO      CLOUDY    50  42  74 W8        30.07S
GRAND JUNCTION SUNNY     63  38  39 W3        29.96S
RIFLE, CO      SUNNY     57  38  48 CALM      30.01F
MONTROSE, CO   SUNNY     59  27  29 CALM      30.01F
CORTEZ, CO     SUNNY     60  24  25 N3        30.02S
COLORADO CITY    N/A     66  34  30 CALM      30.00S
PAGE, AZ       SUNNY     69  32  25 NW5       29.95S
GRAND CANYON   SUNNY     62  25  24 CALM      30.07S
KINGMAN, AZ    SUNNY     74  25  16 CALM      29.91R
FLAGSTAFF, AZ  SUNNY     61  26  26 N5        30.08S

$$

REGIONAL REPORTS    NEVADA/IDAHO/WYOMING

CITY           SKY/WX    TMP DP  RH WIND       PRES   REMARKS
LAS VEGAS, NV  MOSUNNY   77  35  21 CALM      29.83R
ELY, NY        SUNNY     50  39  66 S5        30.07S
ELKO, NV       SUNNY     52  44  74 E5        30.03S
POCATELLO, ID  PTSUNNY   54  48  80 CALM      30.04R
BURLEY, ID     SUNNY     58  47  66 CALM      30.01R
FORT BRIDGER,  CLOUDY    45  45  99 E10       30.16S
EVANSTON, WY   CLOUDY    46  42  86 E18G24    30.12R
ROCK SPRINGS,  CLOUDY    45  40  82 E16       30.13S
KEMMERER, WY   CLOUDY    41  37  87 E7        30.16R

$$




USA.gov is the U.S. government's official web portal to all federal, state and local government web resources and services.